Temperature
8 9 10 9 10 10 10 11 11 12 13 13 11 11 10 10 9 9 8 8 9 9 9 9 8 8 8 8 7 7 6 6 5 5 5 4 3 2 2 2 1 0 -0 -1
9 10 10 10 10 11 11 11 12 13 14 13 10 10 10 10 10 9 8 8 8 9 9 9 8 8 7 7 6 6 5 5 5 4 4 3 2 2 1 1 0 -0 -1 -1
9 10 11 10 11 11 11 12 13 13 14 12 11 10 10 10 10 10 9 9 9 10 10 9 8 8 7 6 6 5 5 5 4 3 3 2 2 1 1 0 -0 -1 -1 -2
9 10 10 12 12 12 12 13 13 14 14 13 13 12 12 11 11 11 10 9 9 9 9 9 8 7 7 6 5 5 4 4 3 2 2 1 1 0 -0 -0 -1 -1 -2 -3
8 9 10 12 13 12 12 13 13 13 13 11 11 11 11 12 12 12 11 10 10 9 9 9 8 7 6 5 5 4 4 3 2 2 1 1 0 -0 -1 -1 -1 -2 -3 -3
9 9 10 12 13 12 13 12 13 12 11 9 10 11 10 12 13 12 11 10 9 9 9 8 7 6 5 5 4 4 3 2 2 1 1 0 -0 -1 -1 -2 -2 -3 -3 -3
9 9 10 11 12 13 12 12 12 11 11 10 11 12 11 12 12 12 11 10 10 9 8 8 7 6 5 4 4 3 2 1 1 0 -0 -0 -1 -1 -2 -2 -2 -3 -3 -4
8 9 10 12 12 12 12 11 10 10 10 10 8 9 10 10 11 11 10 9 9 8 7 6 6 5 4 4 3 2 1 1 0 -0 -1 -1 -1 -2 -2 -3 -3 -3 -4 -4
9 10 10 11 12 12 12 11 10 9 9 9 7 6 7 8 9 9 9 8 8 8 6 5 4 4 4 3 2 1 1 0 -0 -1 -1 -2 -2 -2 -2 -3 -3 -4 -5 -6
9 9 10 11 11 12 12 12 11 10 10 10 8 6 7 7 8 8 8 7 7 6 5 4 3 3 2 2 1 1 0 -0 -1 -1 -2 -2 -3 -3 -3 -3 -4 -5 -7 -7
9 9 9 10 11 11 12 11 10 9 9 9 9 7 8 7 7 7 6 6 6 5 4 3 2 2 1 1 1 0 -0 -1 -1 -2 -2 -2 -3 -3 -4 -4 -6 -7 -8 -9
9 9 8 9 10 11 11 10 10 9 7 8 9 8 8 7 6 6 5 5 4 4 3 3 2 1 1 0 -0 -0 -1 -1 -2 -2 -3 -3 -3 -3 -4 -5 -6 -7 -8 -8
11 11 10 10 9 10 10 10 9 10 9 8 8 8 8 7 6 5 5 4 4 3 2 2 1 1 0 -0 -1 -1 -2 -2 -2 -3 -3 -3 -4 -4 -5 -5 -6 -7 -7 -8
11 11 8 8 8 9 10 9 9 8 8 8 7 7 7 6 5 5 4 3 3 2 1 1 0 -0 -1 -1 -1 -2 -2 -3 -3 -3 -4 -4 -5 -5 -6 -7 -7 -7 -8 -8
10 11 9 8 8 8 9 8 8 7 7 7 7 6 6 6 5 4 3 2 2 1 1 0 -0 -1 -1 -2 -2 -2 -3 -3 -3 -4 -4 -5 -5 -6 -7 -8 -8 -8 -8 -9
9 9 8 8 7 8 8 8 7 7 6 6 6 5 5 5 4 3 2 1 1 0 -0 -1 -1 -1 -2 -2 -3 -3 -3 -4 -4 -4 -5 -5 -6 -7 -8 -8 -9 -9 -9 -9
8 5 6 6 7 7 8 8 8 7 6 6 5 5 4 3 3 2 1 0 -0 -1 -1 -1 -2 -2 -3 -3 -3 -4 -4 -4 -5 -5 -6 -6 -7 -8 -8 -9 -9 -9 -9 -10
9 9 9 8 8 7 7 7 7 6 6 5 5 4 3 3 2 1 0 -1 -1 -1 -2 -2 -3 -3 -3 -4 -4 -4 -5 -5 -5 -6 -6 -7 -8 -8 -9 -9 -9 -10 -10 -9
8 7 7 7 7 7 7 6 6 5 5 5 4 3 2 2 1 0 -1 -1 -1 -2 -2 -3 -3 -4 -4 -4 -5 -5 -5 -6 -6 -7 -7 -8 -8 -9 -9 -9 -10 -10 -10 -10
6 6 6 6 6 6 6 5 5 5 4 4 3 2 1 0 -0 -1 -1 -2 -2 -3 -3 -4 -4 -4 -5 -5 -5 -6 -6 -6 -7 -7 -8 -8 -9 -9 -9 -10 -10 -10 -10 -11
5 5 5 5 5 5 5 5 4 4 3 2 2 2 1 -0 -1 -1 -2 -2 -3 -4 -4 -4 -5 -5 -5 -5 -6 -6 -7 -7 -7 -8 -8 -9 -9 -9 -10 -10 -10 -10 -11 -11
4 4 5 5 5 4 4 4 3 3 2 1 1 1 0 -1 -2 -2 -3 -3 -4 -4 -5 -5 -5 -5 -6 -6 -6 -7 -7 -8 -8 -8 -9 -9 -10 -10 -10 -10 -10 -11 -11 -11
3 4 4 4 4 3 3 2 2 2 1 1 0 -0 -1 -2 -2 -3 -3 -4 -5 -5 -5 -6 -6 -6 -6 -7 -7 -7 -8 -8 -9 -9 -9 -10 -10 -10 -10 -11 -11 -11 -11 -11
4 4 4 4 3 3 2 1 1 0 -0 -1 -1 -2 -2 -2 -4 -4 -4 -5 -5 -6 -6 -6 -6 -7 -7 -7 -7 -8 -8 -9 -9 -9 -10 -10 -10 -10 -11 -11 -11 -11 -11 -11
3 3 3 3 2 2 1 0 -0 -1 -1 -2 -3 -3 -4 -4 -4 -5 -5 -5 -6 -6 -6 -7 -7 -7 -7 -8 -8 -8 -9 -9 -9 -10 -10 -10 -10 -11 -11 -11 -11 -11 -11 -11
3 3 2 2 2 1 0 -0 -1 -1 -2 -3 -4 -4 -5 -5 -5 -5 -6 -6 -6 -6 -7 -7 -7 -8 -8 -8 -8 -9 -9 -9 -10 -10 -10 -10 -11 -11 -11 -11 -11 -11 -11 -11
2 1 1 1 -0 -0 -1 -1 -1 -2 -3 -3 -4 -5 -5 -6 -6 -6 -6 -6 -7 -7 -7 -7 -8 -8 -8 -9 -9 -9 -9 -10 -10 -10 -10 -11 -11 -11 -11 -11 -12 -11 -11 -11
Wind_Speed
15 15 12 10 10 13 12 8 3 2 2 6 9 12 15 16 17 18 18 18 18 17 14 14 13 12 12 12 11 11 10 9 7 7 6 5 3 3 3 4 5 6 6 7
9 11 11 10 10 9 10 7 5 2 3 2 6 8 11 15 19 20 20 19 18 18 17 17 16 15 14 12 11 10 10 8 7 6 5 4 3 3 4 5 5 6 7 7
5 5 3 5 10 11 8 7 5 3 2 5 6 11 16 18 19 21 20 20 20 20 19 17 16 16 15 13 11 10 9 8 7 6 4 3 3 4 4 5 5 6 7 7
4 3 2 6 4 8 8 7 7 4 4 6 7 7 7 9 15 17 18 18 18 16 15 14 14 15 14 13 11 10 9 7 6 5 4 2 3 4 4 4 5 6 7 8
2 3 5 6 1 4 6 6 5 7 5 5 7 7 2 3 8 12 13 13 13 13 15 16 17 16 15 12 11 10 8 7 6 5 3 2 3 4 4 4 5 6 7 8
2 2 3 4 3 1 4 4 2 5 8 9 10 6 6 3 7 10 12 13 15 16 17 17 15 16 15 13 10 9 8 7 5 4 2 1 3 4 3 4 6 7 7 7
3 3 6 7 4 3 5 5 3 2 6 11 9 6 7 9 10 13 15 17 17 18 16 16 15 15 14 12 9 8 8 6 5 3 1 2 3 3 5 6 7 7 8 8
5 5 8 4 2 5 4 1 2 1 2 8 10 12 13 13 15 17 17 17 17 17 15 12 13 15 13 10 9 8 7 6 4 2 2 2 4 5 5 6 7 7 7 8
9 8 4 1 2 1 3 3 2 3 7 14 13 12 14 14 15 15 16 15 14 17 15 11 10 12 13 9 9 8 7 5 3 2 2 3 4 5 5 5 5 6 6 7
5 7 4 1 1 2 3 4 6 8 11 13 16 16 16 15 14 13 14 14 15 16 15 10 9 9 10 9 8 8 6 4 2 2 3 4 4 4 4 5 6 7 8 8
5 3 1 1 2 4 7 10 12 11 10 14 19 16 15 14 14 13 13 11 12 13 13 11 10 9 9 8 8 7 5 3 1 1 3 4 4 4 5 4 7 9 6 7
7 8 7 6 6 8 10 10 13 15 12 9 13 16 14 12 11 12 12 11 11 11 12 10 10 9 8 7 7 7 4 1 1 2 3 3 4 5 8 10 14 15 16 16
3 4 4 7 7 7 9 10 11 12 13 13 11 13 14 11 9 10 11 11 11 11 10 10 9 8 7 7 7 5 3 1 2 2 3 4 4 5 7 9 13 15 18 20
6 7 6 5 6 9 13 13 13 13 11 12 11 12 12 10 10 11 10 9 10 10 10 9 9 7 6 6 6 4 2 1 2 3 3 4 4 5 6 7 9 8 12 18
5 5 9 11 12 13 13 15 16 13 11 10 10 11 11 12 10 9 9 9 10 10 9 8 8 6 5 6 5 3 1 1 2 3 3 4 5 5 6 7 8 9 9 11
8 11 14 15 15 14 15 15 16 12 11 10 10 9 10 10 10 9 9 10 10 9 8 8 7 6 5 5 4 2 0 3 4 3 4 4 5 5 6 6 8 8 10 11
11 11 12 15 14 13 12 11 13 13 11 11 11 11 12 12 11 9 8 7 8 8 7 7 6 5 5 4 3 2 0 3 6 4 4 5 5 5 6 7 8 9 9 13
6 9 13 18 18 15 12 11 12 12 10 10 12 11 11 11 10 9 8 8 9 7 6 5 6 6 5 4 3 1 1 2 3 4 4 5 5 5 6 7 8 10 9 12
9 11 12 12 13 14 13 12 11 11 11 11 12 10 9 9 9 9 8 9 8 6 4 4 8 6 4 3 3 1 2 3 4 4 4 8 7 6 6 7 8 9 10 10
11 13 15 13 12 13 14 13 13 12 10 11 12 11 10 9 9 9 9 6 4 4 5 6 6 5 3 2 3 1 3 3 4 4 4 5 6 6 7 8 9 10 10 11
15 16 17 16 14 13 13 14 14 13 10 10 11 11 10 9 9 8 9 6 3 5 6 7 5 2 1 2 3 2 3 3 4 4 5 5 6 7 7 8 9 10 10 11
14 16 17 17 17 14 10 11 12 13 12 11 11 11 12 11 10 8 7 5 4 7 5 4 2 1 3 4 3 3 3 4 4 4 5 5 6 7 8 9 9 10 10 10
14 16 16 16 16 14 12 11 11 11 12 11 11 11 10 8 6 7 5 3 4 7 5 2 2 4 6 4 3 3 4 4 5 5 5 6 6 7 8 9 9 10 10 10
15 15 15 15 16 16 14 11 11 11 11 11 10 10 10 9 6 5 4 7 8 7 4 4 5 6 6 3 3 3 4 5 5 6 6 5 6 6 7 8 9 9 10 11
14 15 15 15 14 12 13 13 13 12 12 10 10 9 6 5 6 5 5 5 7 6 4 5 6 6 4 3 4 4 4 5 6 6 5 6 7 7 8 8 9 9 10 10
12 11 9 9 10 11 11 10 10 9 10 10 8 7 7 6 7 5 5 5 5 5 3 2 4 5 4 4 5 5 5 6 7 7 7 7 7 8 8 8 10 9 10 10
12 11 10 10 9 8 8 9 10 9 8 9 8 6 6 6 5 5 5 3 3 2 2 3 3 4 4 5 5 5 5 6 6 6 7 7 7 7 8 9 9 9 10 11
Wind_Direction
260 264 257 246 227 205 210 228 238 256 185 195 174 163 159 154 152 154 160 164 165 163 158 153 148 144 141 137 135 133 128 126 128 128 122 112 88 45 12 355 344 333 327 321
271 262 246 244 236 215 218 229 243 307 5 68 109 114 139 154 161 167 171 171 169 165 161 159 155 149 143 138 136 132 129 129 130 126 119 104 66 24 3 349 338 334 325 318
291 284 195 239 219 201 204 209 203 213 221 117 125 156 166 170 173 176 176 174 173 171 167 161 155 149 144 141 135 130 130 131 131 127 117 89 44 16 352 336 328 322 315 312
302 332 256 255 230 186 194 211 197 186 170 160 162 157 163 174 178 178 176 174 171 164 154 146 141 140 135 135 134 132 131 133 131 125 110 71 27 354 327 313 314 307 304 306
298 309 298 306 10 167 186 244 208 196 180 141 118 94 81 195 180 177 168 158 150 144 139 138 140 139 134 132 131 131 135 136 133 126 108 46 353 324 309 306 306 299 299 304
296 301 269 283 323 301 129 265 265 191 187 167 141 156 211 176 143 133 127 129 130 131 132 135 138 136 134 136 136 139 140 137 131 121 101 0 317 304 298 299 294 300 303 305
235 276 275 266 292 96 143 238 308 239 193 174 179 175 136 113 108 116 119 123 127 130 134 137 137 133 133 136 140 138 132 128 120 104 57 319 313 302 303 303 305 307 305 305
180 218 255 264 129 163 204 273 23 13 138 136 112 104 106 107 110 113 116 120 125 125 125 127 131 131 132 135 133 127 125 120 108 75 5 352 332 314 310 311 312 313 311 310
194 213 248 257 196 188 152 129 97 91 111 121 114 110 110 108 110 112 117 118 121 123 121 117 122 130 133 135 132 125 119 112 94 41 359 341 321 315 316 318 317 315 314 317
228 256 252 245 89 67 84 106 103 112 118 120 118 118 115 114 113 113 115 118 122 122 123 120 115 117 126 132 128 122 119 110 80 16 334 326 317 312 315 316 316 319 326 326
231 256 121 256 163 116 94 98 99 91 98 121 122 121 121 119 118 118 117 116 121 126 128 126 121 117 122 126 122 118 116 106 57 329 311 312 316 313 320 299 317 329 323 318
211 204 186 201 157 131 121 121 121 114 101 101 120 123 121 118 120 122 122 120 119 121 125 125 124 123 124 123 121 121 121 127 272 293 300 308 317 320 333 338 335 335 334 331
190 137 117 116 114 110 116 120 121 119 124 119 112 120 121 119 118 121 123 126 129 130 129 128 126 127 129 124 120 125 143 195 266 292 301 309 313 317 322 329 331 332 332 331
112 109 107 119 121 115 115 112 105 100 104 112 116 116 115 114 120 124 130 131 126 124 126 128 128 131 133 125 123 130 145 266 297 292 298 302 304 306 308 316 321 318 325 329
43 103 128 118 113 114 116 117 113 110 109 105 112 119 123 126 127 124 121 120 119 120 126 129 129 134 132 129 132 140 161 277 296 301 304 302 301 303 304 308 314 317 320 326
85 94 113 121 125 126 126 127 126 126 123 120 119 116 115 115 112 111 117 127 130 135 138 135 137 141 136 133 133 136 208 335 343 330 318 312 309 309 313 315 317 319 322 325
126 132 135 137 138 137 135 135 135 134 128 125 122 117 113 110 107 107 108 111 116 122 127 132 136 133 131 133 134 132 1 334 343 336 314 307 307 310 315 318 318 318 317 320
151 153 156 151 148 139 128 122 124 125 123 121 120 117 119 122 125 122 115 107 99 93 97 119 127 122 117 120 121 102 350 322 316 311 309 311 317 320 320 318 316 315 317 320
121 126 128 129 133 133 129 126 121 116 117 120 118 116 113 115 118 118 114 112 117 118 121 129 129 115 107 105 109 47 337 322 318 315 313 329 333 322 319 317 315 315 316 321
118 121 118 114 115 122 122 120 118 115 114 116 114 111 109 112 115 112 104 95 98 132 135 121 110 107 100 53 58 12 333 324 320 320 321 321 318 317 316 317 318 318 319 320
123 121 118 115 109 108 116 122 122 119 114 114 118 120 117 112 111 111 110 100 71 97 110 113 106 110 99 40 35 3 340 332 329 325 322 319 317 314 313 315 318 320 319 319
122 120 118 116 112 105 99 106 114 115 112 109 110 113 114 110 105 94 84 103 114 110 96 90 96 65 59 58 25 356 347 340 331 323 316 313 312 313 314 315 317 318 317 317
118 118 116 115 114 108 97 95 102 110 113 115 117 117 115 112 110 116 110 98 100 104 95 76 58 51 56 46 8 355 346 335 324 316 310 306 306 309 311 312 313 314 313 314
115 112 112 112 112 109 103 96 94 96 96 95 98 105 111 107 85 69 100 116 113 99 71 55 49 45 39 19 353 342 332 320 310 302 302 304 304 304 306 308 310 311 311 311
115 116 117 118 115 115 116 112 103 99 96 92 84 77 75 89 110 104 84 84 99 91 58 34 33 28 21 348 339 329 320 313 311 316 317 311 306 306 306 307 308 309 308 307
117 115 112 112 120 127 128 124 119 117 115 107 95 86 87 88 93 91 83 74 75 80 62 19 0 4 350 337 328 321 316 318 322 317 306 306 305 306 305 306 305 304 303 302
106 108 110 109 110 116 121 123 124 124 124 122 115 104 100 98 95 92 89 79 64 43 15 357 349 341 334 329 324 321 318 314 311 309 306 303 302 302 302 302 302 301 300 299
Height
1398 1392 1390 1390 1388 1388 1390 1388 1387 1380 1373 1371 1372 1375 1380 1388 1395 1402 1409 1414 1419 1425 1431 1437 1443 1448 1454 1458 1463 1466 1470 1472 1474 1475 1476 1476 1475 1474 1473 1471 1468 1465 1461 1457
1392 1384 1382 1382 1382 1382 1382 1382 1381 1376 1373 1369 1373 1377 1383 1388 1394 1400 1405 1411 1417 1422 1428 1434 1440 1446 1451 1457 1461 1466 1469 1471 1473 1473 1474 1473 1473 1472 1470 1468 1465 1461 1457 1452
1389 1380 1378 1380 1374 1376 1377 1376 1376 1377 1374 1372 1375 1378 1382 1386 1391 1395 1401 1407 1412 1418 1424 1431 1437 1443 1449 1455 1460 1465 1468 1470 1471 1471 1471 1471 1470 1469 1467 1464 1461 1457 1453 1448
1391 1383 1383 1373 1363 1365 1370 1371 1371 1370 1371 1371 1373 1377 1382 1384 1388 1393 1398 1404 1410 1416 1423 1430 1437 1444 1450 1455 1460 1463 1466 1468 1469 1469 1469 1469 1468 1466 1463 1460 1457 1453 1448 1443
1393 1387 1380 1368 1363 1364 1368 1369 1367 1369 1370 1373 1375 1380 1385 1387 1389 1392 1397 1402 1409 1415 1422 1429 1436 1443 1449 1454 1458 1462 1464 1466 1467 1467 1467 1466 1465 1463 1460 1457 1453 1449 1444 1439
1393 1389 1385 1370 1363 1362 1366 1371 1364 1365 1368 1372 1375 1384 1385 1384 1388 1393 1399 1404 1410 1416 1423 1430 1437 1443 1448 1453 1457 1460 1462 1464 1465 1465 1465 1464 1462 1459 1456 1453 1449 1444 1440 1435
1393 1391 1382 1368 1363 1363 1375 1371 1363 1363 1364 1367 1370 1373 1378 1382 1386 1392 1398 1404 1410 1417 1424 1430 1437 1443 1448 1453 1456 1459 1460 1462 1463 1463 1462 1461 1459 1456 1452 1448 1444 1439 1434 1430
1389 1391 1384 1364 1363 1367 1367 1363 1362 1362 1362 1365 1369 1372 1376 1381 1386 1392 1398 1405 1411 1418 1425 1432 1438 1443 1448 1452 1455 1457 1459 1460 1461 1461 1459 1458 1455 1452 1448 1444 1439 1433 1428 1423
1378 1375 1367 1363 1363 1363 1363 1363 1363 1363 1363 1365 1369 1375 1379 1384 1390 1396 1402 1408 1415 1421 1427 1434 1440 1444 1448 1451 1453 1455 1457 1458 1458 1458 1457 1454 1451 1448 1444 1439 1433 1428 1422 1417
1372 1367 1364 1364 1363 1364 1364 1364 1365 1366 1367 1369 1372 1378 1383 1389 1395 1400 1406 1412 1418 1423 1429 1435 1440 1445 1448 1450 1452 1454 1456 1456 1456 1455 1454 1451 1448 1444 1439 1434 1429 1423 1418 1413
1367 1364 1363 1363 1364 1365 1366 1367 1368 1370 1372 1375 1377 1383 1388 1394 1400 1405 1410 1416 1422 1426 1431 1436 1440 1444 1447 1449 1451 1453 1454 1454 1454 1453 1450 1448 1444 1440 1435 1431 1426 1421 1416 1411
1362 1359 1361 1361 1363 1365 1367 1369 1371 1374 1377 1382 1384 1388 1394 1399 1404 1409 1414 1419 1424 1429 1433 1437 1441 1444 1447 1449 1451 1452 1452 1452 1451 1449 1447 1443 1440 1437 1432 1428 1423 1419 1414 1409
1354 1354 1357 1359 1363 1366 1369 1372 1375 1378 1382 1386 1391 1395 1399 1403 1408 1413 1418 1422 1427 1431 1435 1438 1441 1444 1446 1448 1449 1450 1450 1450 1448 1446 1443 1439 1435 1430 1426 1423 1420 1415 1410 1405
1353 1354 1358 1361 1364 1368 1372 1375 1379 1383 1388 1391 1395 1400 1404 1407 1412 1416 1421 1425 1429 1432 1436 1439 1441 1444 1446 1447 1448 1448 1448 1447 1445 1442 1439 1435 1431 1427 1422 1417 1412 1408 1405 1400
1354 1355 1357 1360 1366 1370 1374 1378 1382 1387 1391 1396 1400 1403 1407 1410 1414 1419 1423 1427 1430 1433 1436 1439 1441 1443 1445 1446 1446 1446 1445 1444 1441 1439 1435 1432 1427 1423 1419 1414 1409 1404 1398 1394
1355 1356 1358 1362 1367 1372 1377 1381 1384 1389 1394 1398 1402 1406 1410 1414 1417 1421 1424 1428 1431 1434 1437 1439 1441 1443 1444 1444 1444 1443 1442 1440 1438 1435 1431 1428 1424 1419 1415 1410 1405 1400 1395 1390
1355 1358 1361 1365 1369 1374 1379 1383 1387 1391 1396 1400 1404 1408 1412 1415 1419 1422 1426 1429 1432 1435 1437 1439 1440 1441 1442 1442 1442 1441 1439 1437 1434 1431 1427 1424 1420 1416 1411 1407 1402 1397 1392 1387
1356 1357 1359 1362 1368 1375 1381 1386 1390 1395 1399 1403 1407 1410 1414 1417 1420 1423 1426 1429 1432 1434 1436 1438 1439 1440 1440 1440 1439 1438 1436 1433 1430 1427 1423 1420 1416 1412 1408 1403 1398 1393 1388 1383
1357 1360 1364 1368 1373 1378 1383 1388 1393 1398 1402 1405 1409 1412 1416 1419 1422 1425 1427 1430 1432 1434 1436 1437 1438 1438 1438 1437 1436 1434 1432 1429 1426 1423 1420 1416 1412 1409 1404 1399 1395 1389 1384 1379
1358 1362 1366 1372 1377 1382 1387 1391 1396 1400 1404 1408 1411 1414 1417 1420 1423 1425 1428 1430 1432 1434 1435 1436 1436 1436 1436 1435 1433 1431 1428 1426 1423 1419 1416 1412 1408 1404 1400 1396 1391 1386 1381 1376
1359 1363 1369 1374 1380 1386 1390 1395 1399 1402 1406 1410 1413 1416 1418 1421 1424 1426 1428 1430 1432 1433 1434 1434 1434 1434 1433 1431 1430 1427 1425 1422 1419 1415 1412 1408 1404 1401 1396 1392 1387 1382 1377 1372
1361 1366 1372 1377 1383 1388 1394 1398 1402 1405 1408 1412 1415 1417 1419 1422 1424 1426 1429 1430 1431 1432 1432 1433 1432 1431 1430 1428 1426 1424 1421 1418 1415 1412 1408 1405 1401 1396 1392 1388 1383 1378 1374 1369
1365 1370 1376 1381 1386 1391 1396 1401 1404 1407 1410 1413 1416 1418 1420 1422 1425 1427 1428 1430 1430 1431 1431 1431 1430 1428 1427 1425 1423 1420 1417 1414 1411 1408 1404 1401 1397 1393 1388 1384 1379 1375 1370 1366
1369 1375 1380 1385 1390 1393 1397 1402 1406 1409 1412 1415 1417 1420 1422 1423 1425 1426 1428 1429 1429 1429 1429 1428 1427 1426 1424 1422 1419 1417 1414 1411 1407 1404 1401 1397 1393 1389 1385 1380 1376 1372 1367 1363
1374 1379 1384 1388 1392 1396 1399 1403 1407 1410 1413 1415 1418 1420 1422 1424 1425 1426 1427 1428 1428 1428 1427 1426 1425 1423 1421 1418 1416 1413 1410 1407 1403 1400 1396 1393 1389 1385 1381 1377 1372 1368 1364 1360
1379 1383 1388 1392 1395 1398 1401 1405 1407 1411 1413 1416 1418 1421 1423 1424 1425 1426 1427 1427 1427 1426 1425 1424 1422 1420 1417 1415 1412 1409 1406 1403 1399 1396 1392 1388 1385 1381 1377 1373 1369 1366 1362 1358
1382 1386 1390 1394 1398 1401 1404 1407 1409 1412 1415 1417 1418 1421 1423 1424 1425 1426 1426 1426 1425 1424 1423 1421 1419 1417 1414 1411 1409 1406 1402 1399 1395 1392 1388 1384 1381 1377 1374 1370 1367 1363 1359 1355